Regional Weather Roundup
Issued by NWS

Home | Current Version | Previous Version | Text Only | Print | Product List | Glossary On
Versions: 1 2 3 4 5 6 7 8 9 10 11 12 13 14 15 16 17 18 19 20 21 22 23 24 25 26 27 28 29 30 31 32 33 34 35 36 37 38 39 40 41 42 43 44 45 46 47 48 49 50
000
ASUS44 KMEG 231510
RWRTN
TENNESSEE HOURLY STATE WEATHER ROUNDUP
NATIONAL WEATHER SERVICE MEMPHIS TN
900 AM CST THU NOV 23 2017

TNZ002-004-019-021-049-052-054-088>092-231600-
WEST TENNESSEE

CITY           SKY/WX    TMP DP  RH WIND       PRES   REMARKS
MEMPHIS INTL   SUNNY     38  26  62 CALM      30.19S
NWS MEMPHIS      N/A     35 N/A N/A MISG        N/A
JACKSON        SUNNY     36  29  75 CALM      30.19S
DYERSBURG      SUNNY     37  26  64 CALM      30.21S
SOMERVILLE     SUNNY     36  28  75 CALM      30.17S
COVINGTON      SUNNY     36  28  75 CALM      30.20S
UNION CITY     SUNNY     34  28  80 CALM      30.19F
BOLIVAR        SUNNY     37  27  65 NE3       30.17F
PARIS          SUNNY     37  28  70 CALM      30.17F
HUNTINGDON     SUNNY     36  28  75 NE3       30.18S
LEXINGTON      SUNNY     36  27  69 NE3       30.18S
SELMER         SUNNY     36  25  64 VRB3      30.17S
SAVANNAH       SUNNY     34  27  75 CALM      30.17S HAZE
$$

TNZ008-025-027-028-033-062-065-066-231600-
NORTH MIDDLE TENNESSEE

CITY           SKY/WX    TMP DP  RH WIND       PRES   REMARKS
NASHVILLE      SUNNY     38  28  67 CALM      30.18S
PORTLAND       SUNNY     36  28  75 CALM      30.17R
CLARKSVILLE    SUNNY     35  26  69 CALM      30.19R
COOKEVILLE     SUNNY     34  28  80 CALM      30.14S
GALLATIN       SUNNY     37  28  70 CALM      30.20S
CROSSVILLE     SUNNY     35  26  69 NE6       30.12R WCI  30
$$

TNZ061-075-076-078-094-096-097-231600-
SOUTH MIDDLE TENNESSEE

CITY           SKY/WX    TMP DP  RH WIND       PRES   REMARKS
FAYETTEVILLE   SUNNY     37  28  70 NE8       30.11F WCI  31
TULLAHOMA      SUNNY     39  28  65 N6        30.11F WCI  35
WINCHESTER     SUNNY     36  28  75 CALM      30.12F
MCMINNVILLE    SUNNY     34  28  80 NE5       30.13F WCI  30
COLUMBIA       SUNNY     32  27  80 CALM      30.15S
SHELBYVILLE    SUNNY     34  28  80 N6        30.15S WCI  29
$$

TNZ017-018-042-046-047-231600-
NORTHEAST TENNESSEE

CITY           SKY/WX    TMP DP  RH WIND       PRES   REMARKS
TRI CITIES     SUNNY     36  29  75 SE3       30.12F
ELIZABETHTON   SUNNY     39  30  70 E5        30.12F
$$

TNZ012-013-036-069-073-074-231600-
CENTRAL EAST TENNESSEE

CITY           SKY/WX    TMP DP  RH WIND       PRES   REMARKS
KNOXVILLE      MOSUNNY   40  32  73 NE7       30.12F
OAK RIDGE      SUNNY     40  30  67 N3        30.15F
DOWNTOWN KNOXV SUNNY     41  32  70 VRB3      30.15F
GATLINBURG     SUNNY     37  32  81 CALM      30.13F
MORRISTOWN     SUNNY     39  28  65 SE7       30.12F WCI  34
JACKSBORO      SUNNY     37  28  70 CALM      30.18S
$$

TNZ083-085-099-231600-
SOUTHEAST TENNESSEE

CITY           SKY/WX    TMP DP  RH WIND       PRES   REMARKS
CHATTANOOGA    MOSUNNY   44  28  53 NE7       30.13F
DAYTON         SUNNY     43  34  70 N8        30.13F
$$

SKY/WX REPORTED AS FAIR MEANS FEW OR NO CLOUDS BELOW
12 THOUSAND FEET.





USA.gov is the U.S. government's official web portal to all federal, state and local government web resources and services.